Location: Atherton
(17.2661°S, 145.4859°E)
Time: 05:43:45
(UTC+10:00)

Transit 2A Rocket - All Passes

Search period start: 18 June 2025 00:00
Search period end: 28 June 2025 00:00
Orbit: 590 x 896 km, 66.7° (Epoch: 17 June)

Date Brightness Start Highest point End Pass type
(mag) Time Alt. Az. Time Alt. Az. Time Alt. Az.
18 Jun - 01:06:46 10° SE 01:08:21 11° ESE 01:09:54 10° ESE night (unlit)
18 Jun - 02:46:14 10° SW 02:50:56 43° WNW 02:55:14 10° N night (unlit)
18 Jun - 15:21:54 10° NNW 15:27:41 76° WSW 15:33:44 10° SSE daylight
19 Jun - 02:00:52 10° SSW 02:05:52 77° ESE 02:10:24 10° NNE night (unlit)
19 Jun - 14:36:58 10° N 14:42:35 54° ENE 14:48:26 10° SSE daylight
19 Jun - 16:21:55 10° W 16:25:12 15° WSW 16:28:32 10° SSW daylight
20 Jun - 01:16:10 10° S 01:20:38 32° ESE 01:24:46 10° NE night (unlit)
20 Jun - 03:00:11 10° WSW 03:02:32 14° WNW 03:04:48 10° NW night (unlit)
20 Jun - 13:52:51 10° NNE 13:57:35 26° ENE 14:02:27 10° SE daylight
20 Jun - 15:34:44 10° NW 15:39:47 30° WSW 15:45:00 10° S daylight
21 Jun - 00:32:27 10° SSE 00:35:15 15° ESE 00:37:55 10° E night (unlit)
21 Jun - 02:13:18 10° SW 02:17:38 32° WNW 02:21:39 10° N night (unlit)
21 Jun - 13:10:31 10° NE 13:12:40 12° ENE 13:14:49 10° E daylight
21 Jun - 14:48:47 10° NNW 14:54:30 59° WSW 15:00:28 10° SSE daylight
22 Jun - 01:27:40 10° SSW 01:32:38 79° WNW 01:37:08 10° NNE night (unlit)
22 Jun - 14:03:36 10° NNW 14:09:22 69° ENE 14:15:22 10° SSE daylight
22 Jun - 15:50:07 10° W 15:52:08 12° WSW 15:54:09 10° SW daylight
23 Jun - 00:42:44 10° S 00:47:27 43° ESE 00:51:46 10° NE night (unlit)
23 Jun - 13:19:11 10° N 13:24:19 33° ENE 13:29:39 10° SE daylight
23 Jun - 15:02:01 10° WNW 15:06:39 24° WSW 15:11:25 10° S daylight
23 Jun - 23:58:35 10° SSE 00:02:07 19° ESE 00:05:26 10° ENE night (unlit)
24 Jun - 01:40:28 10° SW 01:44:19 24° WNW 01:47:57 10° NNW night (unlit)
24 Jun - 12:35:56 10° NE 12:39:22 16° ENE 12:42:53 10° ESE daylight
24 Jun - 14:15:45 10° NW 14:21:20 47° WSW 14:27:08 10° S daylight
25 Jun - 00:54:32 10° SSW 00:59:21 58° WNW 01:03:45 10° N night (unlit)
25 Jun - 13:30:19 10° NNW 13:36:09 87° ENE 13:42:13 10° SSE daylight
26 Jun - 00:09:24 10° SSW 00:14:14 57° ESE 00:18:40 10° NE night (unlit)
26 Jun - 12:45:37 10° N 12:51:04 43° ENE 12:56:44 10° SE daylight
26 Jun - 14:29:28 10° WNW 14:33:33 19° WSW 14:37:42 10° SSW daylight
26 Jun - 23:24:56 10° S 23:28:57 25° ESE 23:32:43 10° ENE night (unlit)
27 Jun - 01:07:49 10° WSW 01:11:00 18° WNW 01:14:01 10° NNW night (unlit)
27 Jun - 12:01:51 10° NNE 12:06:05 21° ENE 12:10:26 10° ESE daylight
27 Jun - 13:42:48 10° NW 13:48:11 37° WSW 13:53:44 10° S daylight
27 Jun - 22:42:07 10° SE 22:43:31 11° ESE 22:44:52 10° ESE night (unlit)
